Regional Weather Roundup
Issued by NWS

Home | Current Version | Previous Version | Text Only | Print | Product List | Glossary Off
Versions: 1 2 3 4 5 6 7 8 9 10 11 12 13 14 15 16 17 18 19 20 21 22 23 24 25 26 27 28 29 30 31 32 33 34 35 36 37 38 39 40 41 42 43 44 45 46 47 48 49 50

000
ASUS45 KBOU 211407
RWRCO

WEATHER ROUNDUP FOR COLORADO
NATIONAL WEATHER SERVICE DENVER/BOULDER CO
700 AM MST SUN DEC 21 2014

NOTE: "FAIR" INDICATES FEW OR NO CLOUDS BELOW 12000 FEET WITH NO
SIGNIFICANT WEATHER AND/OR OBSTRUCTIONS TO VISIBILITY.

COZ001>005-013-030-031-211500-
...NORTHWEST COLORADO...

CITY           SKY/WX    TMP DP  RH WIND       PRES   REMARKS
CRAIG          LGT SNOW  28  26  92 E3        29.91F FOG
HAYDEN         CLOUDY    27  23  86 CALM      29.91F
MEEKER         LGT SNOW  32  27  81 SW7       29.96F WCI  26
MOUNT WERNER   NOT AVBL
STEAMBOAT SPGS CLOUDY    27  26  94 SE5       29.90F WCI  22
WALDEN         CLOUDY    28  21  74 S17       29.83F WCI  16
$$

COZ006>008-011-211500-
...WEST CENTRAL VALLEYS...

CITY           SKY/WX    TMP DP  RH WIND       PRES   REMARKS
GRAND JUNCTION CLOUDY    32  31  96 W5        30.05R WCI  27
MONTROSE       CLOUDY    29  27  92 S3        30.07R
EAGLE          LGT SNOW  28  27  93 CALM      30.00F FOG
RIFLE          LGT SNOW  31  29  92 E3        30.03S VSB 1
DELTA          CLOUDY    33  30  90 CALM      30.05S
NUCLA          CLOUDY    30  28  93 E3        30.09R
$$

COZ017>023-064>068-211500-
...SOUTHWEST COLORADO...

CITY           SKY/WX    TMP DP  RH WIND       PRES   REMARKS
DURANGO        CLOUDY    26  26 100 CALM      30.04R FOG
CORTEZ         CLEAR     26  24  92 E8        30.04S WCI  18
PAGOSA SPRINGS CLOUDY    28  27  95 CALM      30.03F
TELLURIDE      CLOUDY    26  22  85 CALM      30.06R
WOLF CREEK PAS SNOW      14  12  92 MISG      29.97F VSB 1/4
$$

COZ009-010-012-014-032>034-037-058>063-211500-
...CENTRAL COLORADO...

CITY           SKY/WX    TMP DP  RH WIND       PRES   REMARKS
ASPEN          LGT SNOW  23  21  92 CALM      29.97R FOG
BUENA VISTA    CLOUDY    32  16  50 W16G25    29.89R WCI  21
COPPER MTN     CLOUDY    19  14  79 W24       29.91S WCI   2
BERTHOUD PASS  CLOUDY    10   5  79 MISG      29.84R
COTTONWOOD PAS CLOUDY    30  18  59 NW15G25   29.91R WCI  19
GUNNISON       CLOUDY    19  14  79 CALM      30.03R
KREMMLING      CLOUDY    30  23  74 CALM      29.92F
LEADVILLE      FLURRIES  21  15  78 N5        29.91R WCI  15
SALIDA         CLOUDY    37  16  42 NW14G22   29.95R
SUNLIGHT       LGT SNOW N/A N/A N/A CALM      29.97S VSB 3/4
WILKERSON PASS MOCLDY    21  10  63 W18G31    29.84S WCI   6
$$

COZ069>075-211500-
...SAN LUIS VALLEY/SANGRE DE CRISTO MOUNTAINS...

CITY           SKY/WX    TMP DP  RH WIND       PRES   REMARKS
ALAMOSA        CLOUDY    10   6  84 SE3       29.96F
LA VETA PASS   CLOUDY    19  18  93 MISG      29.82F
SAGUACHE       CLOUDY    25  18  74 SE6       29.96S WCI  18
$$

COZ035-036-038>040-211500-
...NORTHERN COLORADO FRONT RANGE...

CITY           SKY/WX    TMP DP  RH WIND       PRES   REMARKS
DENVER INTL AP CLOUDY    30  21  69 S14       29.72F WCI  19
DMNS CITY PARK   N/A     31  20  63 S8        29.72F WCI  23
AURORA         MOCLDY    33  19  56 S10       29.74F WCI  24
FRONT RANGE AP CLOUDY    32  23  69 S8        29.74F WCI  25
ERIE MUNI ARPT   N/A     25  22  87 CALM      29.71F
BOULDER MUN AP CLOUDY    32  21  64 CALM      29.70F
CENTENNIAL     CLOUDY    33  19  56 S8        29.75S WCI  26
BROOMFIELD     MOCLDY    36  19  51 CALM      29.72F
FORT COLLINS   CLOUDY    25  16  68 N3        29.73F
LONGMONT       CLOUDY    29  22  74 CALM      29.73F
$$

COZ041-046-047-076>085-087-088-211500-
...PIKES PEAK/PALMER DIVIDE AND SOUTHERN FOOTHILLS...

CITY           SKY/WX    TMP DP  RH WIND       PRES   REMARKS
COLO. SPRINGS  MOCLDY    29  18  63 NE7       29.79F WCI  22
A. F. ACADEMY  MOCLDY    28  16  60 NW2       29.79R
ELLICOTT       NOT AVBL
FALCON         MOCLDY    28  15  59 W7        29.80S WCI  21
FORT CARSON    CLOUDY    29  19  64 NW3       29.77F
LIMON          MOCLDY    17  15  92 CALM      29.78S
MONUMENT HILL  CLOUDY    28  16  59 SW10      29.76F WCI  19
TRINIDAD       MOCLDY    31  17  56 W15       29.80F WCI  20
$$

COZ042>045-048>051-090-091-211500-
...NORTHEAST COLORADO...

CITY           SKY/WX    TMP DP  RH WIND       PRES   REMARKS
GREELEY ARPT   CLOUDY    19  10  68 CALM      29.72F
AKRON          MOCLDY    28  20  71 SW9       29.73F WCI  19
BURLINGTON     CLEAR     27  22  81 W8        29.76F WCI  19
WRAY           CLEAR     23  20  90 SW6       29.76S WCI  15
STERLING       MOCLDY    18  14  86 S8        29.74F WCI   7
HOLYOKE        CLEAR     27  21  80 W9        29.73F WCI  17
FORT MORGAN    MOCLDY    21  18  85 W5        29.74F WCI  15
$$

COZ086-089-092>099-211500-
...SOUTHEAST COLORADO...

CITY           SKY/WX    TMP DP  RH WIND       PRES   REMARKS
PUEBLO         CLOUDY    20  15  81 NW5       29.79S WCI  13
LA JUNTA       PTCLDY    25  21  85 W7        29.78F WCI  17
LAMAR          CLEAR     22  20  92 SW6       29.78F WCI  14
SPRINGFIELD      N/A     31  22  69 W12       29.77F WCI  22
$$


USA.gov is the U.S. government's official web portal to all federal, state and local government web resources and services.